CDT,Max TemperatureF,Mean TemperatureF,Min TemperatureF,Max Dew PointF,MeanDew PointF,Min DewpointF,Max Humidity, Mean Humidity, Min Humidity, Max Sea Level PressureIn, Mean Sea Level PressureIn, Min Sea Level PressureIn, Max VisibilityMiles, Mean VisibilityMiles, Min VisibilityMiles, Max Wind SpeedMPH, Mean Wind SpeedMPH, Max Gust SpeedMPH,PrecipitationIn, CloudCover, Events, WindDirDegrees
2013-3-1,24,21,18,18,16,11,86,76,65,30.27,30.20,30.12,10,10,10,16,13,24,0.00,7,,358
2013-3-2,24,17,7,15,10,4,87,74,65,30.26,30.22,30.18,10,10,10,17,12,,0.00,4,,333
2013-3-3,25,13,-2,11,4,-6,91,71,53,30.19,30.16,30.12,10,10,9,9,6,,0.00,0,,334
2013-3-4,30,12,-5,25,13,-9,92,81,68,30.19,30.15,30.07,10,10,9,12,4,,0.00,5,,47
2013-3-5,30,28,26,25,22,20,85,77,66,30.07,30.00,29.92,10,10,10,18,11,26,0.00,8,,35
2013-3-6,34,30,26,28,25,21,88,82,75,30.31,30.24,30.09,10,10,7,16,10,23,0.00,8,,323
2013-3-7,30,21,7,21,16,5,92,74,56,30.48,30.40,30.29,10,10,10,8,5,,0.00,3,,1
2013-3-8,34,18,3,27,18,2,100,89,73,30.52,30.42,30.30,10,6,0,12,3,,0.00,1,Fog,186
2013-3-9,37,29,21,34,28,19,100,91,79,30.32,30.13,29.85,10,5,0,16,6,25,0.28,4,Fog-Rain,169
2013-3-10,37,35,33,38,35,34,100,99,93,29.85,29.77,29.62,8,2,0,29,8,37,0.89,8,Fog-Rain-Snow,70
2013-3-11,35,32,28,36,32,25,100,96,82,29.70,29.57,29.49,10,4,2,15,5,23,0.09,8,Rain-Snow,310
2013-3-12,30,27,23,25,21,11,100,79,60,29.99,29.84,29.72,10,7,1,20,11,26,0.01,8,Snow,280
2013-3-13,30,24,19,16,12,8,86,62,41,30.30,30.18,30.00,10,10,10,17,13,24,0.00,2,,301
2013-3-14,35,26,18,25,15,9,85,63,43,30.30,30.21,30.05,10,10,9,12,7,,0.00,1,,250
2013-3-15,33,30,26,30,28,23,100,89,76,30.03,29.92,29.86,10,4,1,21,11,25,0.01,7,Snow,24
2013-3-16,28,24,19,25,20,11,100,85,61,30.14,29.93,29.82,10,6,1,23,16,29,0.02,6,Rain-Snow,2
2013-3-17,27,20,12,19,12,1,75,67,53,30.32,30.21,30.08,10,10,10,13,8,,0.00,3,,47
2013-3-18,32,24,17,31,26,12,100,90,75,30.06,29.67,29.53,10,4,0,26,10,40,0.16,8,Fog-Snow,165
2013-3-19,27,20,14,14,10,6,81,69,51,29.99,29.79,29.64,10,5,1,37,23,45,0.00,5,Snow,274
2013-3-20,18,14,9,6,2,-2,65,59,52,30.04,30.02,29.99,10,10,10,21,15,28,0.00,0,,288
2013-3-21,27,18,10,14,9,3,73,64,55,30.04,30.02,29.99,10,10,10,15,10,22,0.00,1,,302
2013-3-22,33,22,12,18,13,7,88,69,52,30.11,30.06,30.03,10,10,10,9,6,,0.00,0,,310
2013-3-23,34,26,18,25,21,15,88,71,56,30.18,30.12,30.09,10,10,9,9,5,,0.00,8,,27
2013-3-24,32,30,27,28,27,19,100,87,67,30.09,29.94,29.79,10,6,0,28,14,37,0.00,8,Fog-Snow,39
2013-3-25,35,30,25,25,23,19,89,75,64,30.10,29.92,29.82,10,10,8,18,12,26,0.00,8,,357
2013-3-26,37,34,30,29,26,22,85,75,65,30.24,30.18,30.10,10,10,9,12,9,,0.00,8,,316
2013-3-27,39,34,30,28,23,19,82,62,46,30.30,30.28,30.24,10,10,10,12,6,,0.00,3,,291
2013-3-28,42,34,26,23,21,19,75,59,41,30.35,30.32,30.29,10,10,10,9,6,,0.00,0,,289
2013-3-29,44,35,27,25,22,19,75,59,42,30.33,30.29,30.25,10,10,10,9,5,,0.00,0,,301
2013-3-30,45,36,27,40,30,21,96,76,57,30.24,30.02,29.80,10,9,5,15,6,,0.04,5,Rain,192
2013-3-31,45,38,30,39,34,18,100,85,56,29.89,29.74,29.68,10,6,1,21,11,31,0.00,6,,282